Showing default

HULIANWANG DIGUI-178, 100203

Orbit data source: Space-Track

HULIANWANG DIGUI-178, 100203 is a payload satellite owned by Zhongguo Xingwang (CN) in LEO that was launched on Tue, 04 Aug 2026 UTC launched from the Wenchang Satellite Launch Center (WSC). Payload-class satellites include a variety of spacecraft equipped with specific instruments for various scientific and technological missions. These include communications satellites like Starlink; space stations such as the ISS; scientific satellites like the Hubble; Earth observation satellites from companies like Planet Labs, Umbra, and HawkEye 360; GPS; miniature CubeSats for education and research; and military/defense satellites.

Loading next visibility...
Identifier
100203, 2026-176A
Orbit
LEO
Country
Flag of CNCN / PRC
Related business
Manufacturer
CAST?
Mission
Operational spacecraft
Bus & Motor
XINGWANG C, Unknown motor
Mass
~700 kg wet, ~700 kg dry
Launch date (UTC)
2026-08-04 (1 month ago)
Launch vehicle
Unknown
Launch site
Wenchang Satellite Launch Center (WSC)
Object type
Payload
Rocket body
Debris
Shape & HBR
BOX + 2 PAN, 5.0 m
Radar Cross Section
Large (>1 m²)

Expand to show TLE details & history
Last TLE update: 11 hours ago

TLE from 11 hours ago
0 HULIANWANG DIGUI-178
1 A0203U 26176A   26249.43579601 -.00000069  00000-0  11841-3 0  9999
2 A0203  49.9884 274.6887 0000142 323.5977  36.4885 13.29327519  4420
Epoch: 2026-09-06T10:27Z
TLE epoch observation values (Epoch: 2026-09-06T10:27:32.775Z)
Latitude
-0.00003°
Longitude
132.27117°
Altitude
1,149.72 km
Speed
7.279 km/s
True Right ascension
18h 18m 45s
True Declination
0° 00' 00"
Sunlit
Object was in daylight at epoch
Visualization orbit readout
Latitude
Unknown
Longitude
Unknown
Altitude
Unknown
Speed
Unknown
Apparent Right ascension
Unknown
Apparent Declination
Unknown
Sunlit
N/A
Visualization observer readout
Local Sidereal Time
13:38:55
Azimuth
Unknown
Elevation
Unknown
Doppler factor
Unknown
Orbital elements
Apogee altitude
1,150.115 km
Perigee altitude
1,149.901 km
Semi-major axis
7,528.145 km
Eccentricity
0.00001
Inclination
49.9884°
RAAN
274.6887°
Arg. of periapsis
323.5977°
True anomaly
36.48947°
Mean anomaly
36.4885°
Eccentric anomaly
36.48898°
Mean motion
3.32285 °/min
Orbital period
108.34 mins
BSTAR
0.00011841
Loading maneuver chart data...
Computing Atmospheric mass density...
Loading historical data...
Loading historical data...
Loading historical data...
Loading historical data...
Loading historical data...
Loading historical data...
Loading historical data...

Documentation

Showing up to 5 results
|